Погода в Воронеже

Погода в Воронеже : погода сейчас, прогноз погоды и архив. Всё, что Вы хотите узнать о погоде в Воронеже!

Хотите узнать прогноз погоды в Воронеже? Тогда Вам сюда: Погода в Воронеже

Поиск расширенной информации на нашем сайте:

Другие новости

Новости СМИ2

Главная страница сайта

Новости сайта

03.07.2017

Напоминаем, что на нашем специализированном сайте Метеоцентр.Азия вы можете получить высокодетализированные автоматические прогнозы погоды по пунктам России, СНГ и мира в авиационном формате (включающие направление и скорость ветра, видимость, явления погоды, количество и форму облачности, нижнюю и верхнюю границу облачности).


Погода в Воронеже - сегодня

Время (UTC), дата Ветер
(°,м/с) 
Видим.   Явления Облачность Т
(°С)
Тd
(°С)
f(%) Тe
(°С)
Pmin
(гПа)
dP
(гПа)
Po
(мм)
O2
(г/м3)
Тmin Tmax R s Состояние
почвы
09 19.04.18 290 (З) 10 км  слаб. дождь  10/10 300 м 
[Frnb|Ns]
+7.5 +5.7 88 +6  1000.1  -1.5  737  288           
21 19.04.18 360 (С) 5{11}  10 км    10/10 300 м кучево-дожд. 
[Cb calv]
+7 +5.2 88 +5  1001.1  1.3  737  289           
06 20.04.18 330 (СЗ) 10 км  слаб. ливневой дождь  10/10 300 м кучево-дожд. 
[Cb calv]
+7.5 +6 90 +6  1005.2  1.7  740  289           
15 20.04.18 360 (С) 5-11{13}  10 км    3/3 1000 м 
[Cu hum]
+13.6 +0.3 40 +13  1010.7  1.7  745  286    +14.4  0.7     
18 20.04.18 330 (СЗ) 3{11}  10 км    ясно 
+10.3 +1.2 53 +10  1012.3  1.6  746  289           
21 20.04.18 310 (СЗ) 10 км    3/0 верхняя 
[Cs]
+7.8 +1.4 64 +7  1012.8  0.3  746  292           
00 21.04.18 280 (З) 10 км    3/0 верхняя 
[Cs]
+6.6 +1.4 69 +8  1012.5  -0.4  746  293           
06 21.04.18 260 (З) 10 км    9/0 средняя 
[Ac trans]
+10.6 +1 51 +10  1010.7  -1.3  745  289           
09 21.04.18 270 (З) 5{11}  10 км    8/0 средняя 
[Ac trans]
+15.8 +1.2 37 +16  1007.8  -2.5             
15 21.04.18 250 (З) 10-12{14}  10 км    4/0 средняя 
[Ac trans]
+19.8 +2 31 +20  999.1  -4  737  276    +19.8       
15 22.04.18 260 (З) 4{17}  10 км  {ливн. осадки}  10/10 600 м 
[Sc diur, vesp]
+6 +2.9 80 +4  1002.4  1.4  738  291    +11.4     
18 22.04.18 320 (СЗ) 10 км  {ливн. осадки}  8/8 1500 м 
[Sc diur, vesp]
+6.3 +2.9 79 +6  1003.9  1.6  739  291           
21 22.04.18 340 (С) 10 км    10/10 1000 м 
[Sc diur, vesp]
+5 +0 70 +3  1006.3  2.2  741  293           
00 23.04.18 320 (СЗ) 10 км    3/3 1000 м 
[Sc]
+1.5 -2.9 72 1008  1.5  742  298           
06 23.04.18 320 (СЗ) 6{11}  10 км    8/6 600 м средняя, верхняя 
[Cu hum|Ac trans|Ci sp]
+3.3 -4.5 57 1011.1  1.4  745  297           
09 23.04.18 300 (СЗ) 6{10}  10 км    9/6 600 м кучево-дожд., средняя 
[Cb calv|Ac trans]
+5.8 -9.4 33 +3  1012  745  295           
18 23.04.18 290 (З) 10 км    ясно 
+4.6 -6.2 45 +3  1014.3  1.3  747  297           
21 23.04.18 280 (З) 10 км    ясно 
+2.9 -4.7 57 +1  1014.5  0.2  747  298           
00 24.04.18 280 (З) 10 км    ясно 
+1.5 -4.7 63 1015.1  0.5  747  300           
06 24.04.18 270 (З) 10 км    ясно 
+6.5 -4.8 44 +5  1016.3  0.3  748  295           
09 24.04.18 290 (З) 5{10}  10 км    4/3 1000 м верхняя 
[Cu hum|Ci fib]
+10.8 -6.8 28 +10  1015.3  -0.5  748  291           
12 24.04.18 290 (З) 10 км    8/3 1000 м средняя, верхняя 
[Cu hum|Ac trans|Ci sp]
+13 -7 24 +12  1014  -1.2  747  288           
18 24.04.18 290 (З) 10 км    6/0 средняя, верхняя 
[Ac trans|Ci sp]
+11.1 -2.7 38 +12  1012.1  -0.4  746  289           
21 24.04.18 тихо ()   10 км    10/0 средняя 
[Ac trans]
+9.2 -0.7 50 +9  1011.8  -0.3  745  291           
00 25.04.18 тихо ()   10 км    10/0 средняя 
[Ac trans]
+9.5 +0.4 53 +10  1011  -0.8  745  290           
Время (UTC), дата Ветер
(°,м/с) 
Видим.   Явления Облачность Т
(°С)
Тd
(°С)
f(%) Тe
(°С)
Pmin
(гПа)
dP
(гПа)
Po
(мм)
O2
(г/м3)
Тmin Tmax R s Состояние
почвы

Для получения пояснительной информации подведите курсор к названию столбца.

ПОГОДА в Воронеже - архив

Всё, что Вы хотите узнать о погоде в Воронеже - удобно и подробно!

Выберите нужную дату (начиная с 1 января 2015* года) и нажмите кнопку "Найти".
Будут отображены архивные сводки погоды по пункту Воронеж, начиная с указанной даты.


Отображать данные в формате CSV (для использования в таблицах Excel)


Внимание! Наш архив погоды предназначен исключительно для личного некоммерческого использования в познавательных целях. Если Вам необходимы официальные справки о состоянии погоды (для производственных, юридических, коммерческих и т.п. целей), обращайтесь в органы Росгидромета.

*Примечание: данная дата относится к архиву по метеостанциям СССР (Россия, СНГ, Балтия).
Архив по метеостанциям Зарубежной Европы и Азии (кроме Китая) хранится 10 дней, по другим регионам земного шара (Китай, Африка, Америка, Австралия, Океания) - 1 день.

Воронеж - район местоположения метеостанции


Название, широта, долгота, высота метеостанции:
Воронеж (город) 51.6°ш. 39.2°д. 104 м над ур. моря [Российская Федерация]

Дополнительная информация

В oтличие oт бoльшинства пoгoдных сайтoв мы публикуем пoдрoбную метеoинфoрмацию в детальнoм прoфессиoнальнoм фoрмате.

Характеристики температуры и влажнoсти вoздуха измеряются на высoте 2 м в тени вдали oт зданий и деревьев.
Скoрoсть ветра измеряется на высoте 10 м (на урoвне рoста челoвека скoрoсть ветра ниже в 1.5-2 раза). Если метеoстанция нахoдится в гoрoде или в лесу, тo скoрoсть ветра занижена на 2-4 м/с пo сравнению с oткрытым местoм. Скoрoсть ветра над акватoриями крупных рек и oзёр, а также на вершинах хoлмoв на 2-5 м/с выше, чем в oбычных услoвиях.
Атмoсфернoе давление в разных тoчках местнoсти мoжет значительнo oтличаться oт давления на метеoстанции, в зависимoсти oт услoвий рельефа (при пoдъёме на 10 м давление пoнижается примернo на 1 мм рт.ст.).